Location: Haram ta Haram Freeway
(35.0583°N, 51.4202°E)
Time: 04:49:13
(UTC+03:30)

Tiangong - Visible Passes

Search period start: 05 October 2022 00:00
Search period end: 15 October 2022 00:00
Orbit: 383 x 385 km, 41.5° (Epoch: 04 October)

Date Brightness Start Highest point End Pass type
(mag) Time Alt. Az. Time Alt. Az. Time Alt. Az.
05 Oct -0.2 19:00:18 10° SSW 19:01:45 17° SSE 19:01:45 17° SSE visible
06 Oct 0.2 19:36:17 10° WSW 19:37:28 21° SW 19:37:28 21° SW visible
07 Oct -1.5 18:36:36 10° SW 18:39:33 38° SSE 18:40:46 26° E visible
08 Oct -1.7 19:13:11 10° WSW 19:16:06 60° NW 19:16:06 60° NW visible
09 Oct -2.2 18:13:06 10° WSW 18:16:13 74° SSE 18:19:04 12° ENE visible
09 Oct 1.0 19:50:24 10° WNW 19:51:15 16° WNW 19:51:15 16° WNW visible
10 Oct -1.1 18:49:58 10° W 18:52:58 39° NNW 18:54:04 28° NNE visible
11 Oct 0.1 19:27:10 10° WNW 19:28:56 22° NW 19:28:56 22° NW visible
12 Oct -0.7 18:26:37 10° WNW 18:29:26 29° N 18:31:31 15° NE visible
13 Oct -0.4 19:03:36 10° WNW 19:06:11 24° N 19:06:11 24° N visible
14 Oct -0.5 18:02:59 10° WNW 18:05:41 25° N 18:08:22 10° NE visible
14 Oct 0.9 19:40:08 10° NW 19:40:47 14° NW 19:40:47 14° NW visible
